DW9855 Weather Reports


time (UTC)temp
F
wind
direction
speed
knots
gust
knots
rain 1hr
in
rain 24hr
in
rain mn
in
humidity
%
barometer
mb
20260505183041 56 36 6.1 13.9 0.00 0.00 0.00 63 1013.1
20260505181605 57 53 3.5 12.2 0.00 0.00 0.00 59 1013.0
20260505180049 57 41 5.2 12.2 0.00 0.00 0.00 59 1013.1
20260505174548 57 286 2.6 11.3 0.00 0.00 0.00 58 1013.0
20260505173047 57 28 2.6 11.3 0.00 0.00 0.00 59 1013.1
20260505171553 57 22 6.1 14.8 0.00 0.00 0.00 59 1013.2
20260505170045 57 32 8.7 17.4 0.00 0.00 0.00 61 1013.2
20260505164533 57 36 7.0 13.9 0.00 0.00 0.00 60 1013.3
20260505163034 57 36 5.2 13.9 0.00 0.00 0.00 61 1013.3
20260505161532 57 24 4.3 13.0 0.00 0.00 0.00 63 1013.3
20260505153045 59 17 7.8 17.4 0.00 0.00 0.00 56 1013.3
20260505151542 59 37 5.2 12.2 0.00 0.00 0.00 54 1013.3
20260505124540 57 32 4.3 13.9 0.00 0.00 0.00 57 1013.8
20260505123048 57 41 4.3 12.2 0.00 0.00 0.00 58 1013.8
20260505121536 57 32 6.1 12.2 0.00 0.00 0.00 59 1013.8
20260505120046 57 30 5.2 10.4 0.00 0.00 0.00 59 1013.9
20260505114559 56 26 5.2 12.2 0.00 0.00 0.00 63 1013.9
20260505113057 56 35 6.1 11.3 0.00 0.00 0.00 63 1013.8
20260505111556 56 34 3.5 11.3 0.00 0.00 0.00 64 1014.2
20260505110106 56 31 1.7 10.4 0.00 0.00 0.00 66 1014.1
20260505101543 55 40 3.5 10.4 0.00 0.00 0.00 68 1014.4
20260505100041 54 35 4.3 12.2 0.00 0.00 0.00 68 1014.4
20260505094539 53 34 3.5 10.4 0.00 0.00 0.00 69 1014.5
20260505093039 53 33 7.8 12.2 0.00 0.00 0.00 69 1014.5
20260505091551 53 34 4.3 13.0 0.00 0.00 0.00 68 1014.6
20260505090037 53 32 4.3 9.6 0.00 0.00 0.00 72 1014.5
20260505084537 52 31 2.6 10.4 0.00 0.00 0.00 73 1014.6
20260505083041 51 48 3.5 12.2 0.00 0.00 0.00 75 1014.7
20260505081533 50 32 4.3 8.7 0.00 0.00 0.00 78 1014.8
20260505080031 50 34 2.6 7.8 0.00 0.00 0.00 80 1014.9
20260505074553 50 35 2.6 7.8 0.00 0.00 0.00 80 1014.9
20260505073058 50 34 4.3 7.8 0.00 0.00 0.00 80 1014.9
20260505071551 50 33 4.3 9.6 0.00 0.00 0.00 80 1014.9
20260505070050 50 36 4.3 13.0 0.00 0.00 0.00 80 1015.0
20260505064629 50 34 5.2 11.3 0.00 0.00 0.00 80 1014.8
20260505063052 49 49 3.5 13.0 0.00 0.00 0.00 82 1014.9
20260505061549 49 35 6.1 12.2 0.00 0.00 0.00 84 1014.7
20260505060046 48 33 4.3 8.7 0.00 0.00 0.00 85 1014.7
20260505054551 48 32 5.2 8.7 0.00 0.01 0.00 86 1014.7
20260505053046 48 32 3.5 8.7 0.00 0.01 0.00 86 1014.8
20260505051543 48 32 3.5 9.6 0.00 0.01 0.00 87 1014.9
20260505041537 49 37 3.5 7.8 0.00 0.01 0.00 89 1014.6
20260505040036 49 36 1.7 5.2 0.00 0.01 0.00 89 1014.5
20260505034554 49 36 3.5 5.2 0.00 0.01 0.00 89 1014.6
20260505033039 49 36 3.5 7.8 0.00 0.01 0.00 89 1014.5
20260505031638 49 36 3.5 8.7 0.00 0.01 0.00 89 1014.6
20260505030044 49 36 3.5 8.7 0.00 0.01 0.00 88 1014.6
20260505024609 49 34 0.9 7.0 0.00 0.01 0.00 88 1014.8
20260505023052 49 34 2.6 8.7 0.00 0.01 0.00 88 1014.8
20260505021550 49 34 1.7 7.8 0.00 0.01 0.00 87 1014.9
20260505014550 50 34 0.0 3.5 0.00 0.01 0.00 86 1014.9
20260505013048 51 34 2.6 8.7 0.00 0.01 0.00 86 1015.0
20260505011547 51 34 0.0 3.5 0.00 0.01 0.00 85 1015.1
20260505004600 52 34 0.0 3.5 0.00 0.01 0.00 85 1015.2
20260505003045 52 34 1.7 5.2 0.00 0.01 0.00 85 1015.1
20260505001543 53 34 2.6 5.2 0.00 0.01 0.00 85 1015.1
20260505000039 53 34 2.6 5.2 0.00 0.01 0.00 85 1015.1
20260504234540 53 34 1.7 4.3 0.00 0.01 0.00 85 1015.3
20260504233039 54 34 2.6 7.0 0.00 0.01 0.00 85 1015.3
20260504231540 54 34 0.0 1.7 0.00 0.01 0.00 85 1015.3
20260504230036 54 34 0.0 3.5 0.00 0.01 0.00 85 1015.2
20260504224539 55 34 0.0 7.0 0.00 0.01 0.01 85 1015.3
20260504223034 55 19 0.9 3.5 0.00 0.01 0.01 84 1015.3
20260504221543 55 18 0.9 7.0 0.00 0.01 0.01 84 1015.3
20260504220032 55 16 1.7 2.6 0.00 0.01 0.01 83 1015.3
20260504214550 56 16 0.0 4.3 0.00 0.01 0.01 83 1015.2
20260504213051 56 16 0.0 3.5 0.00 0.01 0.01 82 1015.5
20260504211549 56 16 0.0 3.5 0.00 0.01 0.01 82 1015.4
20260504210050 57 16 0.9 3.5 0.00 0.01 0.01 81 1015.4
20260504204546 57 16 0.0 4.3 0.00 0.05 0.01 81 1015.4
20260504203146 57 15 1.7 6.1 0.00 0.05 0.01 80 1015.4
20260504201545 58 39 0.0 5.2 0.00 0.05 0.01 79 1015.3
20260504200043 58 42 0.0 1.7 0.00 0.05 0.01 77 1015.1
20260504194549 59 30 0.0 1.7 0.00 0.06 0.01 75 1014.9
20260504193046 59 30 1.7 7.8 0.00 0.06 0.01 74 1014.7
20260504191605 60 28 1.7 7.0 0.00 0.06 0.01 73 1014.6
20260504190041 60 28 0.9 5.2 0.00 0.06 0.01 74 1014.5
20260504184549 60 28 0.9 4.3 0.00 0.10 0.01 74 1014.4